User: anonymous
Location: Caltech
(34.1382°N, 118.1253°W)
Time: 12:37:51
(UTC-07:00)
Language:

Aureole 3 Rocket - Orbit

View from above orbital plane
View from above orbital plane
View from above satellite
View from above satellite

Ground track
Ground track

The orbit data is extracted from the following two-line orbital elements,

1 12849U 81094B   14234.47550868  .00000725  00000-0  68447-4 0  9620
2 12849 082.4911 236.0427 0910239 300.7816 050.6761 13.48221543603045
Epoch (UTC): 22 August 2014 11:24:43
Eccentricity: 0.0910239
inclination: 82.4911°
perigee height: 400 km
apogee height: 1757 km
right ascension of ascending node: 236.0427°
argument of perigee: 300.7816°
revolutions per day: 13.48221543
mean anomaly at epoch: 50.6761°
orbit number at epoch: 60304

The dashed part of the orbit path shows where the satellite is in the earth's shadow,  

DLR